Главная страница
METAR-TAF:

METAR-TAF

Аэропорты :

Manassas Regional Airport (Harry P. Davis Field)

Manassas, Виргиния, США

широта: 38-43N, долгота: 077-31W, высота над уровнем моря: 59 м

Текущие метеонаблюдения

Эта сводка был подготовлена 36 минут назад, в 00:56 UTC
Ветер 10 Узел от северо-западный
Температура -1°C
Влажность 64%
Давление 1023 hPa
Видимость: 16.1 км
небольшая облачность на высоте 4500 фута

METAR: KHEF 130056Z 32010KT 10SM FEW045 M01/M07 A3022 RMK AO2 SLP240 T10061072 FZRANO

Время: 20:32 (01:32 UTC)


TAF: отсутствует

Метеонаблюдения и прогнозы для более 4000 аэропортов (сводки METAR и TAF).

Имеющиеся станции представлены на карте желтыми и красными точками.

Чтобы увидеть название станции, наведите на нее мышь.

Затем щелкните, чтобы увидеть метеонаблюдения и метеопрогнозы.

Управление картой: чтобы увеличить масштаб, щелкните зеленые кнопки с черным крестиком; чтобы уменьшить масштаб, щелкните зеленую кнопку с тире; для просмотра соседних карт щелкайте зеленые стрелки.


METAR-TAF: